Pontiac, MI

2:03 PM EST on December 16, 2017 (GMT -0500)
Oakland County International

Weather History for KPTK - October, 2012

Change the Weather History Date:

Monday, October 22, 2012

  Actual Average Record
Temperature  
Mean Temperature 54 °F -  
Max Temperature 69 °F 55 °F 75 °F (2017)
Min Temperature 39 °F 38 °F 24 °F (1997)
Degree Days  
Heating Degree Days 11    
Growing Degree Days 4 (Base 50)    
Moisture  
Dew Point 47 °F    
Average Humidity 77    
Maximum Humidity 97    
Minimum Humidity 54    
Precipitation  
Precipitation 0.02 in - - ()
Sea Level Pressure  
Sea Level Pressure 30.05 in    
Wind  
Wind Speed 2 mph (SSE)    
Max Wind Speed 9 mph    
Max Gust Speed -    
Visibility 9 miles    
Events Rain    
Averages and records for this station are not official NWS values.
T = Trace of Precipitation, MM = Missing Value Source: NWS Daily Summary

Daily Weather History Graph

Daily Weather History Graph

Search for Another Location

Airport or City:

Trip Planner

Search our weather history database for the weather conditions in past years. The results will help you decide how hot, cold, wet, or windy it might be!

Date:

Astronomy

Oct. 22, 2012 Rise Set
Actual Time 7:55 AM EDT 6:39 PM EDT
Civil Twilight 7:26 AM EDT 7:08 PM EDT
Nautical Twilight 6:54 AM EDT 7:41 PM EDT
Astronomical Twilight 6:21 AM EDT 8:13 PM EDT
Moon 2:55 PM EDT (10/22) 12:32 AM EDT (10/22)
Length of Visible Light 11h 41m
Length of Day
10h 43m
First Quarter, 56% of the Moon is Illuminated
Oct 22
First Quarter
Oct 29
Full
Nov 6
Last Quarter
Nov 13
New
Nov 20
First Quarter

Hourly Weather History & Observations

Time (EDT) Temp. Dew Point Humidity Pressure Visibility Wind Dir Wind Speed Gust Speed Precip Events Conditions
12:53 AM 42.1 °F 39.0 °F 89% 30.10 in 10.0 mi Calm Calm - N/A   Clear
1:53 AM 41.0 °F 39.0 °F 93% 30.09 in 10.0 mi Calm Calm - N/A   Clear
2:53 AM 41.0 °F 39.0 °F 93% 30.09 in 10.0 mi Calm Calm - N/A   Clear
3:53 AM 39.0 °F 37.9 °F 96% 30.09 in 5.0 mi Calm Calm - N/A   Clear
4:53 AM 39.9 °F 37.9 °F 93% 30.09 in 7.0 mi Calm Calm - N/A   Clear
5:53 AM 39.9 °F 39.0 °F 97% 30.09 in 7.0 mi Calm Calm - N/A   Clear
6:53 AM 39.0 °F 37.9 °F 96% 30.09 in 8.0 mi Calm Calm - N/A   Clear
7:53 AM 39.9 °F 37.9 °F 93% 30.09 in 6.0 mi Calm Calm - N/A   Clear
9:53 AM 52.0 °F 46.0 °F 80% 30.09 in 9.0 mi South 3.5 mph - N/A   Partly Cloudy
10:53 AM 55.9 °F 48.0 °F 75% 30.09 in 10.0 mi ESE 3.5 mph - N/A   Partly Cloudy
11:53 AM 60.1 °F 48.0 °F 64% 30.08 in 10.0 mi SE 5.8 mph - N/A   Partly Cloudy
12:53 PM 64.0 °F 48.9 °F 58% 30.06 in 10.0 mi SE 4.6 mph - N/A   Scattered Clouds
1:53 PM 66.9 °F 50.0 °F 54% 30.04 in 10.0 mi SE 9.2 mph - N/A   Mostly Cloudy
2:53 PM 69.1 °F 52.0 °F 54% 30.03 in 10.0 mi SSE 9.2 mph - N/A   Overcast
3:53 PM 68.0 °F 53.1 °F 59% 30.02 in 10.0 mi South 6.9 mph - N/A   Overcast
4:53 PM 68.0 °F 53.1 °F 59% 30.00 in 10.0 mi SE 6.9 mph - N/A   Mostly Cloudy
5:53 PM 66.0 °F 53.1 °F 63% 30.00 in 10.0 mi SE 6.9 mph - N/A   Overcast
6:53 PM 64.0 °F 53.1 °F 67% 29.99 in 10.0 mi SSE 6.9 mph - N/A   Overcast
7:53 PM 63.0 °F 52.0 °F 67% 30.00 in 10.0 mi South 5.8 mph - N/A   Overcast
9:53 PM 62.1 °F 52.0 °F 70% 29.99 in 10.0 mi SSW 3.5 mph - 0.00 in Rain Light Rain
10:53 PM 57.9 °F 55.0 °F 90% 29.97 in 9.0 mi Calm Calm - 0.02 in   Overcast
11:53 PM 57.9 °F 55.0 °F 90% 29.99 in 8.0 mi Calm Calm - N/A   Overcast